Location: Eschle
(47.7667°N, 9.3667°E)
Time: 14:43:00
(UTC+00:00)

Daily predictions for brighter satellites

Satellite Brightness Start Highest point End
(mag) Time Altitude Azimuth Time Altitude Azimuth Time Altitude Azimuth
Cosmos 1092 Rocket 4.2 15:56:29 10° N 16:02:40 50° ENE 16:08:46 10° SSE
SJ-7 4.5 16:00:04 10° SSE 16:04:15 76° ENE 16:08:30 10° N
MOS 1 Rocket 4.1 16:01:18 10° N 16:06:11 56° WNW 16:10:45 10° SSW
COSMOS 2455 3.5 16:01:30 10° S 16:07:01 39° ESE 16:12:35 10° NE
Spot 1 4.4 16:06:57 10° NNE 16:11:42 65° ESE 16:16:39 10° S
Cosmos 2322 Rocket 3.7 16:10:21 10° N 16:13:58 17° NE 16:17:36 10° ENE
Cosmos 1697 Rocket 2.7 16:08:42 10° NNW 16:14:22 88° ENE 16:19:59 10° SSE
CZ-4C R/B 3.1 16:09:01 10° NW 16:15:50 55° NE 16:23:55 10° ESE
Cosmos 468 Rocket 4.0 16:13:09 10° SSW 16:18:19 86° ESE 16:23:35 10° NNE
Cosmos 1980 Rocket 2.3 16:14:00 10° NNW 16:19:35 55° ENE 16:25:06 10° SE
NOAA 12 4.1 16:16:05 10° SSE 16:21:24 83° ENE 16:26:45 10° NNW
ATLAS CENTAUR R/B 3.1 16:13:51 10° SW 16:24:42 78° SE 16:28:48 12° NE
COSMO-SKYMED 1 4.2 16:22:42 10° NE 16:25:21 16° E 16:28:00 10° SE
Meteor PRIRODA 3.7 16:21:45 10° S 16:25:22 79° WSW 16:29:00 10° NNW
Cosmos 1898 Rocket 3.8 16:20:19 10° NNW 16:25:35 74° WSW 16:30:45 10° SSE
Cosmos 1627 Rocket 4.5 16:19:31 10° N 16:25:39 62° ENE 16:31:42 10° SSE
Cosmos 2369 3.7 16:20:39 10° NNW 16:26:25 75° ENE 16:32:08 10° SSE
Cosmos 1933 3.3 16:23:34 10° S 16:27:34 66° E 16:31:36 10° NNE
USA 305 3.7 16:25:25 10° WNW 16:29:21 36° N 16:32:38 14° ENE
Cosmos 1633 Rocket 3.9 16:25:34 10° NNE 16:29:22 28° ENE 16:33:07 10° SE
FengYun 1-2 T 4.2 16:24:23 10° SSE 16:29:58 82° ENE 16:35:32 10° NNW
Cosmos 2034 Rocket 4.2 16:24:04 10° SSW 16:30:12 78° W 16:36:25 10° N
CZ-4B R/B 3.0 16:26:35 10° S 16:30:34 74° WSW 16:34:22 10° NNW
Cosmos 1812 3.7 16:28:00 10° SSE 16:31:16 27° E 16:34:34 10° NNE
NOSS 2-2 (C) 4.3 16:26:11 10° NW 16:31:17 80° NE 16:38:27 10° SE
CORIOLIS 4.2 16:26:21 10° SSE 16:31:40 63° ENE 16:37:03 10° N
Cosmos 1818 4.1 16:27:07 10° NNW 16:32:17 39° NE 16:37:24 10° ESE
SL-16 R/B 3.2 16:28:56 10° N 16:33:36 25° NE 16:38:16 10° E
AQUARIUS 4.1 16:31:46 10° SSE 16:36:12 64° ENE 16:40:39 10° N
Cosmos 1151 Rocket 3.8 16:32:41 10° SSE 16:36:30 31° E 16:40:20 10° NNE
Cosmos 2082 Rocket 2.4 16:31:56 10° S 16:37:26 52° ESE 16:42:56 10° NE
USA 267 3.3 16:32:04 11° NE 16:38:20 75° SE 16:44:53 10° SW
SMAP 3.0 16:36:22 10° SSE 16:41:01 83° ENE 16:45:42 10° NNW
Meteor 2-14 Rocket 4.4 16:36:08 10° N 16:42:16 74° E 16:48:19 10° SSE
Meteor 1-14 Rocket 4.4 16:38:03 10° N 16:43:46 53° ENE 16:49:33 10° SSE
ARGOS 3.7 16:42:51 10° SE 16:47:42 35° ENE 16:52:33 10° N
MOS 1-B 4.4 16:42:09 10° SE 16:47:46 56° ENE 16:53:25 10° N
Cosmos 1763 Rocket 4.2 16:43:12 10° SW 16:48:10 53° WNW 16:53:12 10° NNE
Cosmos 2333 Rocket 4.0 16:45:37 10° N 16:48:11 13° NNE 16:49:03 13° NE
Cosmos 1634 Rocket 4.0 16:42:40 10° S 16:48:58 74° E 16:55:18 10° NNE
Cosmos 2278 3.7 16:43:59 10° NNW 16:49:41 66° ENE 16:55:20 10° SE
Cosmos 2026 Rocket 3.9 16:44:10 10° N 16:50:20 89° E 16:56:24 10° S
Cosmos 1602 4.2 16:46:58 10° NNW 16:50:48 63° W 16:54:37 10° S
CZ-4B DEB 4.1 16:45:30 10° SSE 16:51:00 78° ENE 16:56:31 10° NNW
Cosmos 44 Rocket 3.5 16:49:39 10° NNW 16:54:28 49° NE 16:59:07 10° ESE
Cosmos 1833 Rocket 3.2 16:49:37 10° SW 16:55:10 60° WNW 17:00:46 10° NNE
CZ-2C R/B 4.2 16:51:36 10° S 16:56:11 42° W 17:00:43 10° NNW
Cosmos 841 Rocket 3.4 16:51:15 10° SSW 16:56:24 86° ESE 17:01:35 10° NNE
Cosmos 1666 Rocket 3.5 16:52:46 10° N 16:57:11 61° ENE 17:01:32 10° SSE
Okean O Rocket 2.2 16:53:41 10° SE 16:57:44 35° ENE 17:01:47 10° N
MOS 1-B Rocket 4.3 16:52:24 10° NNE 16:58:16 53° E 17:04:55 10° S
Cosmos 1328 Rocket 4.0 16:56:01 10° SSE 17:00:08 39° E 17:03:23 15° NNE
Cosmos 1470 Rocket 4.2 16:56:26 10° N 17:00:30 34° ENE 17:04:35 10° SE
H-2A R/B 1.9 16:56:09 10° SSE 17:01:14 68° ENE 17:06:14 10° N
USA 306 3.5 16:57:45 10° WNW 17:01:47 40° NNE 17:03:36 26° ENE
Cosmos 1939 Rocket 3.8 16:58:34 10° S 17:02:35 52° W 17:06:34 10° NNW
COSMOS 2406 3.6 16:58:36 10° SW 17:04:19 65° WNW 17:10:02 10° NNE
Cosmos 2219 Rocket 4.0 17:02:19 10° N 17:04:46 13° NNE 17:04:46 13° NNE
ISS -2.6 17:01:53 10° WNW 17:05:08 44° SSW 17:08:21 10° SE
ATLAS 2AS CENTAUR R/B 4.2 17:00:51 10° NW 17:06:43 23° N 17:10:37 16° NE
Cosmos 372 Rocket 4.3 17:01:57 10° NNW 17:07:11 70° WSW 17:12:23 10° S
CZ-2C R/B 2.9 17:02:58 10° NNE 17:07:52 44° E 17:12:47 10° S
Meteor 2-21 Rocket 4.4 17:01:58 10° N 17:08:07 86° E 17:14:11 10° S
Cosmos 1125 Rocket 3.9 17:03:42 10° N 17:08:38 39° ENE 17:13:34 10° SE
Cosmos 1500 3.8 17:07:01 10° NNW 17:10:41 56° W 17:14:19 10° S
USA 234 3.4 17:05:59 10° SE 17:12:32 79° SW 17:19:06 10° NW
SKYMED 2 3.8 17:11:18 22° NE 17:13:47 45° E 17:17:57 10° S
Cosmos 1782 3.6 17:12:46 10° SSW 17:16:40 52° WNW 17:20:35 10° N
Cosmos 1900 4.4 17:11:58 10° SSW 17:16:42 55° ESE 17:18:52 30° ENE
CZ-2D R/B 3.4 17:14:07 10° S 17:17:56 73° WSW 17:21:46 10° NNW
Sich 1 4.2 17:14:09 10° NNW 17:18:15 45° W 17:22:22 10° SSW
Cosmos 1655 Rocket 4.1 17:12:44 10° N 17:18:59 52° ENE 17:25:10 10° SSE
CZ-4B R/B 3.0 17:14:51 10° SSE 17:20:13 75° ENE 17:25:34 10° NNW
USA 307 3.4 17:17:23 10° WNW 17:21:28 43° NNE 17:22:25 37° NE
Cosmos 2180 Rocket 4.5 17:16:22 10° S 17:22:36 66° E 17:28:49 10° NNE
Meteor 2-6 Rocket 4.2 17:17:10 10° S 17:22:49 65° E 17:28:21 10° NNE
APEX 4.4 17:21:04 10° S 17:23:25 24° SE 17:23:25 24° SE
SJ-11-01 4.2 17:19:51 10° SSE 17:24:32 66° ENE 17:29:15 10° N
ATLAS 5 CENTAUR R/B 2.0 17:18:51 10° NW 17:25:51 52° NNE 17:26:27 45° ENE
deb Chang Zheng 4 3.4 17:26:03 10° SSE 17:30:21 84° ENE 17:34:42 10° NNW
ERBS 4.4 17:29:23 10° NW 17:30:53 15° N 17:30:53 15° N
Cosmos 2360 Rocket 2.9 17:32:31 10° NNW 17:37:21 33° NE 17:37:21 33° NE
Lacrosse 5 rocket 1.2 17:34:20 10° NW 17:38:17 87° SSW 17:39:13 52° SE
Cosmos 1666 3.7 17:36:11 10° NNW 17:39:46 46° W 17:43:19 10° SSW
USA 308 3.1 17:40:00 10° WNW 17:44:08 51° NNE 17:44:08 51° NNE
Cosmos 1515 Rocket 3.5 17:40:20 10° S 17:44:43 62° E 17:44:47 62° E
Meteor 1-10 Rocket 4.1 17:46:33 10° S 17:52:20 81° E 17:56:15 21° NNE
Meteor 1-11 Rocket 3.6 17:46:58 10° N 17:52:38 76° ENE 17:58:22 10° SSE
COSMOS 2455 3.7 17:47:07 10° WSW 17:52:54 46° NW 17:56:40 21° NNE
Cosmos 921 Rocket 2.9 17:53:34 10° SSW 17:57:46 83° WNW 17:57:55 81° NNW
Cosmos 2322 Rocket 2.1 17:53:26 10° NNW 17:59:09 68° ENE 18:00:15 55° ESE
SL-08 RB Rocket 3.7 17:55:03 10° SSE 17:59:41 84° WSW 18:04:19 10° NNW
COSMO-SKYMED 1 3.0 17:59:55 30° N 18:01:53 59° WNW 18:06:09 10° SSW
Cosmos 2298 Rocket 4.2 17:57:00 10° NNW 18:02:19 71° WSW 18:07:37 10° SSE
Cosmos 1980 Rocket 4.3 17:58:35 10° NW 18:03:14 27° WSW 18:07:51 10° SSW
CZ-4C R/B 3.8 17:57:34 10° NW 18:04:37 50° WSW 18:12:42 10° SSE
Meteor 2-15 Rocket 4.3 18:03:13 10° S 18:09:21 89° WNW 18:14:07 18° N
USA 305 3.6 18:05:26 10° WNW 18:08:38 48° NW 18:08:38 48° NW
Feng Yun 1-1 Rocket 4.4 18:04:58 10° SSE 18:10:54 81° WSW 18:16:47 10° NNW
YAOGAN 1 4.4 18:14:04 21° NNW 18:14:04 21° NNW 18:15:32 10° NNW
CZ-2C R/B 3.8 18:13:11 10° SSW 18:14:25 13° S 18:14:25 13° S
Cosmos 2266 Rocket 4.4 18:11:44 10° NNW 18:18:04 66° W 18:24:24 10° S
SL-16 R/B 2.4 18:12:35 10° NNW 18:18:15 69° WSW 18:21:04 30° S
Aureole 3 Rocket 4.4 18:14:09 10° S 18:26:48 - N 18:16:26 34° S
USA 267 3.7 18:19:25 41° NNE 18:21:12 52° NNW 18:27:29 10° W
Cosmos 2082 Rocket 3.7 18:16:46 10° WSW 18:21:47 31° NW 18:24:53 19° N
ARGOS 4.5 18:22:53 10° SSW 18:27:55 39° W 18:32:58 10° NNW
GEOS 3 Rocket 3.8 18:30:35 65° NW 18:30:35 65° NW 18:35:00 10° NW
Cosmos 2333 Rocket 3.7 18:28:29 10° NNW 18:31:06 25° N 18:31:06 25° N
Okean O Rocket 3.6 18:30:18 10° SSW 18:34:07 28° W 18:37:57 10° NW
CZ-2C R/B 4.3 18:44:29 14° NNW 18:47:59 29° WNW 18:52:22 10° WSW
Cosmos 2219 Rocket 4.1 18:44:48 10° NNW 18:46:30 19° NNW 18:46:30 19° NNW
ATLAS CENTAUR R/B 4.4 18:51:22 10° WNW 18:54:28 20° NW 18:54:28 20° NW
NOSS 3-4 (A) 4.4 18:50:20 10° NW 18:55:00 43° N 18:55:00 43° N
NOSS 3-4 (C) 4.5 18:50:26 10° NW 18:55:05 42° N 18:55:05 42° N
ATLAS 2AS CENTAUR R/B 4.0 18:53:18 10° NW 18:58:02 30° N 18:58:02 30° N
Cosmos 2360 Rocket 3.9 19:16:24 10° NW 19:19:09 28° NW 19:19:09 28° NW
Cosmos 2322 Rocket 4.4 19:38:27 10° NW 19:42:10 21° W 19:42:10 21° W
